| time (UTC) | temp C | wind direction | speed KPH | gust KPH | rain 1hr cm | rain 24hr cm | rain mn cm | humidity % | barometer mb |
| 20260503233235 | 15 | 300 | 4.8 | 12.9 | 0.00 | 0.03 | 0.00 | 42 | 1010.6 |
| 20260503231724 | 15 | 279 | 3.2 | 9.7 | 0.00 | 0.03 | 0.00 | 42 | 1010.6 |
| 20260503230226 | 16 | 269 | 4.8 | 14.5 | 0.00 | 0.03 | 0.00 | 42 | 1010.7 |
| 20260503224731 | 16 | 191 | 0.0 | 6.4 | 0.00 | 0.03 | 0.00 | 43 | 1010.8 |
| 20260503223220 | 16 | 220 | 3.2 | 14.5 | 0.00 | 0.03 | 0.00 | 41 | 1010.8 |
| 20260503221713 | 16 | 223 | 4.8 | 12.9 | 0.00 | 0.03 | 0.00 | 40 | 1010.8 |
| 20260503220237 | 16 | 238 | 3.2 | 9.7 | 0.00 | 0.03 | 0.00 | 42 | 1010.9 |
| 20260503214740 | 16 | 163 | 3.2 | 14.5 | 0.00 | 0.05 | 0.00 | 42 | 1010.9 |
| 20260503213231 | 16 | 283 | 6.4 | 11.3 | 0.00 | 0.05 | 0.00 | 41 | 1011.0 |
| 20260503211721 | 16 | 250 | 4.8 | 16.1 | 0.00 | 0.05 | 0.00 | 40 | 1011.0 |
| 20260503210224 | 16 | 287 | 4.8 | 16.1 | 0.00 | 0.05 | 0.00 | 40 | 1010.9 |
| 20260503204728 | 16 | 304 | 4.8 | 9.7 | 0.00 | 0.05 | 0.00 | 41 | 1010.9 |
| 20260503203219 | 16 | 277 | 3.2 | 24.1 | 0.00 | 0.05 | 0.00 | 40 | 1010.9 |
| 20260503201732 | 17 | 277 | 4.8 | 16.1 | 0.00 | 0.05 | 0.00 | 40 | 1011.1 |
| 20260503200239 | 17 | 146 | 4.8 | 9.7 | 0.00 | 0.05 | 0.00 | 40 | 1011.3 |
| 20260503194720 | 16 | 223 | 6.4 | 20.9 | 0.00 | 0.05 | 0.00 | 40 | 1011.6 |
| 20260503193212 | 16 | 164 | 3.2 | 16.1 | 0.00 | 0.05 | 0.00 | 43 | 1011.7 |
| 20260503191723 | 16 | 232 | 4.8 | 14.5 | 0.00 | 0.05 | 0.00 | 43 | 1012.2 |
| 20260503190249 | 16 | 236 | 8.0 | 12.9 | 0.00 | 0.05 | 0.00 | 40 | 1012.2 |
| 20260503184730 | 16 | 292 | 6.4 | 14.5 | 0.00 | 0.05 | 0.00 | 40 | 1012.4 |
| 20260503183220 | 17 | 275 | 4.8 | 16.1 | 0.00 | 0.05 | 0.00 | 41 | 1012.5 |
| 20260503181734 | 17 | 231 | 9.7 | 19.3 | 0.00 | 0.05 | 0.00 | 40 | 1012.6 |
| 20260503180241 | 17 | 279 | 4.8 | 17.7 | 0.00 | 0.05 | 0.00 | 43 | 1012.7 |
| 20260503174719 | 16 | 310 | 4.8 | 19.3 | 0.00 | 0.05 | 0.00 | 42 | 1012.9 |
| 20260503173212 | 16 | 261 | 6.4 | 19.3 | 0.00 | 0.05 | 0.00 | 42 | 1013.2 |
| 20260503171727 | 16 | 281 | 6.4 | 19.3 | 0.00 | 0.05 | 0.00 | 44 | 1013.4 |
| 20260503170233 | 15 | 250 | 3.2 | 12.9 | 0.00 | 0.05 | 0.00 | 44 | 1013.6 |
| 20260503150237 | 13 | 273 | 3.2 | 11.3 | 0.00 | 0.08 | 0.00 | 46 | 1014.4 |
| 20260503140246 | 12 | 288 | 3.2 | 6.4 | 0.00 | 0.08 | 0.00 | 48 | 1014.8 |
| 20260503130239 | 8 | 255 | 1.6 | 8.0 | 0.00 | 0.10 | 0.00 | 55 | 1015.3 |
| 20260503110238 | 3 | 257 | 0.0 | 0.0 | 0.00 | 0.10 | 0.00 | 74 | 1015.0 |
| 20260503100229 | 3 | 257 | 0.0 | 1.6 | 0.00 | 0.10 | 0.00 | 75 | 1014.6 |
| 20260503090238 | 3 | 284 | 0.0 | 0.0 | 0.00 | 0.10 | 0.00 | 75 | 1014.7 |
| 20260503080228 | 3 | 284 | 0.0 | 1.6 | 0.00 | 0.13 | 0.00 | 75 | 1014.8 |
| 20260503071715 | 3 | 252 | 0.0 | 1.6 | 0.00 | 0.13 | 0.00 | 74 | 1014.9 |
| 20260503070238 | 3 | 251 | 0.0 | 0.0 | 0.00 | 0.13 | 0.00 | 73 | 1014.8 |
| 20260503060227 | 4 | 251 | 0.0 | 0.0 | 0.00 | 0.15 | 0.00 | 70 | 1015.1 |
| 20260503054712 | 4 | 251 | 0.0 | 0.0 | 0.00 | 0.15 | 0.00 | 70 | 1015.2 |
| 20260503053222 | 5 | 251 | 0.0 | 0.0 | 0.00 | 0.15 | 0.00 | 69 | 1015.2 |
| 20260503051735 | 5 | 251 | 0.0 | 0.0 | 0.00 | 0.15 | 0.00 | 68 | 1015.3 |
| 20260503050237 | 5 | 251 | 0.0 | 0.0 | 0.00 | 0.15 | 0.00 | 68 | 1015.4 |
| 20260503044720 | 5 | 251 | 0.0 | 0.0 | 0.00 | 0.15 | 0.00 | 67 | 1015.5 |
| 20260503043232 | 5 | 251 | 0.0 | 0.0 | 0.00 | 0.15 | 0.00 | 66 | 1015.4 |
| 20260503041723 | 6 | 251 | 0.0 | 0.0 | 0.00 | 0.15 | 0.00 | 66 | 1015.5 |
| 20260503040225 | 6 | 252 | 0.0 | 1.6 | 0.00 | 0.15 | 0.00 | 65 | 1015.5 |
| 20260503034711 | 6 | 253 | 0.0 | 3.2 | 0.00 | 0.15 | 0.15 | 65 | 1015.6 |
| 20260503033245 | 6 | 252 | 0.0 | 1.6 | 0.00 | 0.15 | 0.15 | 65 | 1015.7 |
| 20260503031715 | 6 | 253 | 0.0 | 1.6 | 0.00 | 0.15 | 0.15 | 65 | 1015.7 |
| 20260503030238 | 6 | 254 | 0.0 | 1.6 | 0.00 | 0.15 | 0.15 | 64 | 1015.8 |
| 20260503024720 | 6 | 276 | 0.0 | 0.0 | 0.00 | 0.18 | 0.15 | 63 | 1015.9 |
| 20260503023233 | 6 | 277 | 0.0 | 0.0 | 0.03 | 0.18 | 0.15 | 62 | 1016.0 |
| 20260503021724 | 6 | 277 | 0.0 | 0.0 | 0.03 | 0.18 | 0.15 | 62 | 1016.0 |
| 20260503020252 | 6 | 277 | 0.0 | 0.0 | 0.03 | 0.18 | 0.15 | 61 | 1016.1 |
| 20260503014731 | 6 | 277 | 0.0 | 0.0 | 0.03 | 0.18 | 0.15 | 61 | 1016.0 |
| 20260503013222 | 6 | 277 | 0.0 | 0.0 | 0.00 | 0.15 | 0.13 | 61 | 1015.9 |
| 20260503011734 | 6 | 277 | 0.0 | 0.0 | 0.00 | 0.15 | 0.13 | 61 | 1016.0 |
| 20260503010258 | 6 | 277 | 0.0 | 0.0 | 0.00 | 0.15 | 0.13 | 61 | 1016.0 |
| 20260503004721 | 6 | 277 | 0.0 | 3.2 | 0.00 | 0.18 | 0.13 | 60 | 1016.0 |
| 20260503003213 | 6 | 276 | 0.0 | 3.2 | 0.00 | 0.18 | 0.13 | 60 | 1015.9 |
| 20260503001726 | 6 | 276 | 0.0 | 1.6 | 0.00 | 0.18 | 0.13 | 60 | 1015.9 |
| 20260503000254 | 6 | 276 | 0.0 | 3.2 | 0.00 | 0.18 | 0.13 | 60 | 1015.8 |
| 20260502234714 | 6 | 276 | 0.0 | 4.8 | 0.00 | 0.18 | 0.13 | 60 | 1015.9 |